Regional Weather Roundup
Issued by NWS

Home | Current Version | Previous Version | Text Only | Print | Product List | Glossary On
Versions: 1 2 3 4 5 6 7 8 9 10 11 12 13 14 15 16 17 18 19 20 21 22 23 24 25 26 27 28 29 30 31 32 33 34 35 36 37 38 39 40 41 42 43 44 45 46 47 48 49 50
000
ASUS45 KBOI 270610
RWRID

IDAHO REGIONAL WEATHER ROUNDUP
NATIONAL WEATHER SERVICE BOISE ID
1200 AM MDT WED MAY 27 2015

NOTE: "FAIR" INDICATES FEW OR NO CLOUDS BELOW 12000 FEET
WITH NO SIGNIFICANT WEATHER AND/OR OBSTRUCTIONS TO VISIBILITY

IDZ012-014-270700-
SOUTHWEST IDAHO


CITY           SKY/WX    TMP DP  RH WIND       PRES   REMARKS
BOISE          PTCLDY    61  46  57 NE3       29.91F
CALDWELL       MOCLDY    61  43  51 N6        29.93R
MOUNTAIN HOME  CLOUDY    59  47  63 CALM      29.92R
$$

IDZ016-017-270700-
SOUTHCENTRAL IDAHO


CITY           SKY/WX    TMP DP  RH WIND       PRES   REMARKS
BURLEY         PTCLDY    56  42  59 SE10      29.99S
JEROME         MOCLDY    56  45  66 E8        29.98S
TWIN FALLS     MOCLDY    57  43  59 S10       29.95S
$$

IDZ019>023-270700-
SOUTHEAST IDAHO


CITY           SKY/WX    TMP DP  RH WIND       PRES   REMARKS
IDAHO FALLS    MOCLDY    50  46  86 SE7       30.04F
POCATELLO      CLEAR     51  46  83 E10       30.04F
REXBURG        CLOUDY    48  45  89 NE5       30.05R
$$

IDZ006-010-011-018-031-032-270700-
CENTRAL IDAHO MOUNTAINS


CITY           SKY/WX    TMP DP  RH WIND       PRES   REMARKS
MCCALL         CLOUDY    50  40  68 W8        30.00R
HAILEY         MOCLDY    46  43  87 CALM      30.06R
STANLEY          N/A     41  34  76 S5        30.06F
SALMON         CLOUDY    55  43  62 SW13G23   29.98R
CHALLIS        PTCLDY    49  41  74 NW8       30.02R
$$

IDZ002-004-006-007-026-270700-
NORTHERN IDAHO


CITY           SKY/WX    TMP DP  RH WIND       PRES   REMARKS
LEWISTON       CLEAR     54  50  86 S7        29.95S
LOWELL           N/A     52  48  86 CALM      29.99R
COEUR D`ALENE  PTCLDY    52  46  82 E6        29.97S
MULLAN PASS    PTCLDY    45  39  79 CALM      30.04F
$$



USA.gov is the U.S. government's official web portal to all federal, state and local government web resources and services.